Temp
2 2 2 2 2 2 2 2 2 2 2 2 2 2 1 0 0 0 0 0 0 1 1 1 1 1 1 1 0 0 0 0 0 0 -0 -0 -0 -0 -0 0 0 1 1 1 1 1 1 1 2 2 2 2 2 2 2 2 2 2 2 2 2 2 2 2 2 2 2 2 2 2 2 2 2 2 2 2 2 2 2 2 3 3 3 3 3 3
2 2 2 2 2 2 2 2 2 2 2 1 1 1 1 0 0 0 0 0 0 0 0 1 1 1 0 0 0 0 -0 -0 -0 -0 -0 -0 -0 -0 0 0 1 1 1 1 1 1 1 1 1 2 2 2 2 2 2 2 2 2 2 2 2 2 2 2 2 2 2 2 2 2 2 2 2 2 2 2 2 2 2 2 2 2 2 2 2 3
2 2 2 2 2 1 1 1 1 1 1 1 1 1 1 0 0 -0 -0 -0 0 0 0 0 0 0 0 -0 -0 -0 -1 -1 -1 -1 -0 -0 0 0 1 1 1 1 1 1 1 1 1 1 1 1 1 1 1 1 1 1 1 2 2 2 2 1 1 1 1 1 2 2 2 2 2 2 2 2 2 2 2 2 2 2 2 2 2 2 2 2
2 1 1 1 1 1 1 1 1 1 1 1 1 0 0 0 0 0 0 0 0 0 0 0 0 -0 -0 -1 -1 -1 -1 -1 -1 -1 -0 0 0 0 1 1 1 1 1 1 1 1 1 1 1 1 1 1 1 1 1 1 1 1 1 1 1 1 1 1 1 1 1 1 1 1 1 1 1 1 1 1 1 2 2 2 2 2 2 2 2 2
1 1 1 1 1 1 1 1 1 0 0 0 0 0 0 0 0 0 0 0 0 -0 -0 -0 -0 -0 -1 -1 -1 -1 -1 -1 -1 -0 0 0 0 1 1 1 1 1 0 0 0 0 0 1 1 1 1 1 1 1 1 1 1 1 1 1 1 1 1 1 1 1 1 1 1 1 1 1 1 1 1 1 1 1 1 2 2 2 2 2 2 2
0 1 1 1 0 0 0 0 0 0 0 0 -0 -0 -0 -0 -0 -0 -0 -0 -0 -0 -0 -0 -1 -1 -1 -1 -1 -1 -0 -1 -0 -0 0 0 0 0 0 0 0 0 0 0 0 0 0 0 0 1 1 1 1 1 1 1 1 1 1 1 1 1 1 1 1 1 1 1 1 1 1 1 1 1 1 1 1 1 1 1 1 1 1 1 2 2
0 0 0 0 0 0 0 0 0 0 0 -0 -0 -0 -0 -0 -0 -0 -0 -0 -0 -1 -1 -1 -1 -1 -1 -1 -1 -0 -0 -0 0 0 0 0 0 0 0 0 -0 -0 -0 -0 -0 -0 -0 0 0 1 1 1 1 1 1 1 1 1 1 1 1 1 1 1 1 1 1 1 1 1 1 1 1 1 1 1 1 1 1 1 1 1 1 1 1 2
-0 -0 -0 -0 -0 -0 -0 -0 -0 -0 -0 -0 -0 -0 -1 -1 -0 -0 -0 -1 -1 -1 -1 -1 -1 -1 -1 -0 -0 -0 0 0 0 0 0 0 0 0 0 0 -0 -0 -0 -0 -0 -0 -0 0 0 0 0 0 1 1 1 1 1 0 0 0 0 0 0 0 0 0 0 0 0 0 0 1 1 1 1 1 1 1 1 1 1 1 1 1 1 1
-0 -0 -0 -0 -0 -0 -0 -0 -0 -0 -0 -0 -0 -0 -0 -0 -0 -0 -0 -0 -0 -0 -0 -0 -0 -0 -0 -0 -0 -0 0 0 0 0 0 0 0 0 0 -0 -0 -0 -1 -1 -1 -1 -0 -0 -0 -0 -0 -0 -0 0 0 -0 -0 -0 -0 -0 -0 -0 -0 -0 -0 -0 -0 0 0 0 0 0 0 0 1 1 1 1 1 1 1 1 1 1 1 1
-0 -0 -0 -0 -0 -0 -0 -0 -0 -0 -0 -0 -0 -0 -0 -0 -0 -0 -0 -0 -0 -0 -0 0 0 -0 -0 -0 -0 0 0 0 0 0 0 -0 -0 -0 -0 -0 -0 -1 -1 -1 -1 -1 -1 -1 -1 -1 -1 -1 -1 -1 -1 -1 -1 -1 -1 -1 -1 -1 -1 -1 -0 -0 -0 -0 -0 -0 0 0 0 0 0 0 1 1 0 0 0 0 1 1 1 1
-0 -0 -0 -0 -0 -0 -0 -0 -0 -0 -0 -0 -0 -0 -0 -0 -0 -0 -0 0 0 0 0 0 0 0 -0 -0 -0 -0 0 0 -0 -0 -0 -0 -0 -0 -1 -1 -1 -1 -1 -1 -1 -1 -1 -1 -1 -1 -1 -1 -1 -1 -1 -1 -1 -1 -1 -1 -1 -1 -1 -1 -1 -1 -1 -0 -0 -0 -0 0 0 0 0 0 0 0 0 0 0 0 0 1 1 1
-0 -0 -0 -0 -0 -0 -0 -0 -0 -0 -0 -0 -0 -0 0 0 0 0 -0 0 0 0 0 0 0 -0 -0 -0 -0 -0 -0 -0 -0 -0 -0 -0 -0 -1 -1 -1 -1 -1 -1 -1 -2 -2 -2 -2 -2 -2 -2 -1 -1 -1 -1 -1 -1 -1 -1 -1 -1 -1 -1 -1 -1 -1 -1 -1 -0 -0 -0 0 0 0 0 0 0 0 0 0 0 0 0 0 1 1
-0 -0 -0 -0 -0 -0 -0 -0 0 0 0 0 0 0 0 1 1 0 0 0 0 -0 -0 -0 -0 -0 -0 -0 -0 -0 -0 -0 -0 -0 -0 -0 -1 -1 -1 -1 -1 -1 -1 -2 -2 -2 -2 -2 -1 -1 -1 -1 -1 -1 -1 -1 -1 -1 -1 -1 -1 -1 -1 -1 -1 -1 -1 -1 -0 -0 -0 -0 0 0 0 0 0 0 0 0 0 0 0 1 1 1
-0 -0 -0 -0 -0 -0 0 0 0 0 0 0 0 0 0 0 0 0 0 -0 -0 -0 -0 -0 -0 -0 -0 -0 -0 -0 -0 -0 -0 -1 -1 -1 -1 -1 -1 -1 -1 -2 -2 -2 -2 -2 -2 -1 -1 -1 -1 -1 -1 -1 -1 -1 -1 -1 -1 -1 -1 -1 -1 -1 -1 -1 -1 -1 -0 -0 -0 -0 -0 0 0 0 0 0 0 0 0 0 0 0 0 0
-0 -0 0 0 0 0 0 0 0 0 0 0 0 0 0 0 0 0 0 -0 -0 -0 -0 -0 -0 -0 -1 -1 -1 -1 -1 -1 -1 -1 -1 -1 -1 -2 -2 -2 -2 -2 -2 -2 -2 -2 -2 -2 -2 -2 -2 -1 -1 -1 -1 -1 -1 -1 -1 -1 -1 -1 -1 -1 -1 -1 -1 -0 -0 -0 -0 -0 -0 0 0 0 0 0 0 0 0 0 0 0 0 0
-0 0 -0 0 0 0 0 0 0 0 0 0 0 0 0 0 0 0 0 -0 -0 -0 -0 -0 -0 -0 -0 -1 -1 -1 -1 -1 -1 -2 -2 -2 -2 -2 -2 -2 -2 -2 -2 -2 -2 -2 -2 -2 -2 -2 -2 -2 -2 -2 -2 -1 -1 -1 -1 -2 -1 -1 -1 -1 -1 -1 -1 -1 -0 -0 -0 -0 -0 0 0 0 0 0 0 0 0 0 0 0 0 0
-0 -0 -0 -0 0 0 0 0 0 0 0 0 0 0 -0 -0 -0 -0 -0 -0 -1 -1 -1 -1 -1 -0 -0 -0 -1 -1 -1 -1 -2 -2 -2 -2 -2 -2 -3 -3 -3 -3 -2 -2 -2 -2 -2 -2 -2 -2 -2 -2 -2 -2 -2 -2 -2 -2 -2 -2 -2 -1 -1 -1 -1 -1 -1 -1 -1 -0 -0 -0 -0 -0 0 0 0 0 -0 -0 -0 -0 -0 0 0 0
-0 -0 -0 -0 -0 -0 -0 0 0 0 0 0 -0 -0 -0 -0 -0 -1 -1 -1 -1 -1 -1 -1 -1 -1 -1 -1 -1 -2 -2 -2 -2 -2 -3 -3 -3 -3 -3 -3 -3 -3 -3 -2 -2 -2 -2 -2 -2 -2 -2 -2 -2 -2 -2 -2 -2 -2 -2 -2 -2 -2 -1 -1 -1 -1 -1 -1 -1 -1 -0 -0 -0 -0 -0 -0 -0 -0 -0 -0 -0 -0 -0 -0 -0 -0
-0 -0 -0 -0 -0 -0 -0 -0 -0 -0 -0 -0 -1 -1 -1 -1 -1 -1 -1 -1 -1 -1 -2 -2 -2 -2 -2 -2 -2 -2 -2 -2 -3 -3 -3 -4 -4 -3 -3 -3 -3 -3 -3 -3 -2 -2 -3 -2 -2 -2 -2 -2 -2 -2 -2 -2 -2 -2 -2 -2 -2 -2 -2 -1 -1 -1 -1 -1 -1 -1 -1 -1 -1 -1 -1 -1 -1 -1 -1 -1 -0 -0 -0 -0 -0 -0
-1 -1 -1 -1 -1 -1 -1 -1 -1 -1 -1 -1 -1 -1 -1 -1 -1 -1 -2 -2 -2 -2 -2 -2 -2 -2 -2 -2 -2 -3 -3 -3 -3 -4 -4 -4 -4 -4 -4 -4 -4 -4 -3 -3 -3 -3 -3 -3 -3 -3 -2 -2 -2 -2 -2 -2 -2 -2 -2 -2 -2 -2 -2 -2 -1 -1 -1 -1 -1 -1 -1 -1 -1 -1 -1 -1 -1 -1 -1 -1 -1 -1 -1 -1 -1 -1
-1 -1 -1 -1 -1 -1 -1 -1 -1 -1 -1 -1 -1 -2 -2 -2 -2 -2 -2 -2 -2 -2 -2 -2 -3 -3 -3 -3 -3 -3 -3 -4 -4 -4 -4 -4 -4 -4 -4 -4 -4 -4 -4 -3 -3 -3 -3 -3 -3 -3 -2 -2 -2 -2 -2 -2 -2 -2 -2 -2 -2 -2 -2 -2 -2 -2 -1 -1 -1 -1 -1 -1 -1 -1 -1 -1 -1 -1 -1 -1 -1 -1 -1 -1 -1 -1
-1 -1 -1 -1 -1 -1 -1 -1 -1 -1 -1 -1 -1 -2 -2 -2 -2 -2 -2 -2 -2 -2 -3 -3 -3 -3 -3 -3 -3 -4 -4 -4 -4 -4 -5 -5 -4 -4 -4 -4 -4 -4 -4 -4 -3 -3 -3 -3 -3 -2 -2 -2 -2 -2 -2 -2 -2 -3 -3 -2 -2 -2 -2 -2 -2 -2 -2 -1 -1 -1 -1 -1 -1 -1 -1 -1 -1 -1 -1 -1 -1 -1 -1 -1 -1 -1
-1 -1 -2 -2 -2 -2 -2 -2 -2 -2 -2 -2 -2 -2 -2 -2 -2 -2 -2 -2 -3 -3 -3 -3 -3 -3 -3 -4 -4 -4 -4 -4 -5 -5 -5 -5 -4 -4 -4 -4 -4 -4 -4 -4 -4 -4 -3 -3 -3 -2 -2 -2 -2 -2 -2 -3 -3 -3 -3 -3 -2 -2 -2 -2 -2 -2 -2 -2 -2 -2 -1 -1 -1 -1 -1 -1 -2 -2 -2 -2 -2 -2 -2 -2 -2 -1
-2 -2 -2 -2 -2 -2 -2 -2 -2 -2 -2 -2 -2 -2 -2 -2 -2 -3 -3 -3 -3 -3 -3 -3 -3 -3 -4 -4 -4 -4 -4 -5 -5 -5 -5 -5 -5 -4 -4 -4 -4 -4 -4 -4 -4 -4 -4 -3 -3 -2 -2 -2 -2 -2 -3 -3 -3 -3 -3 -3 -3 -2 -2 -2 -2 -2 -2 -2 -2 -2 -2 -2 -2 -2 -2 -2 -2 -2 -2 -2 -2 -2 -2 -2 -2 -2
-2 -2 -2 -3 -2 -2 -2 -2 -2 -2 -2 -3 -3 -3 -3 -3 -3 -3 -3 -3 -3 -3 -3 -3 -4 -4 -4 -4 -4 -5 -5 -5 -5 -5 -5 -5 -5 -5 -5 -5 -5 -5 -4 -4 -4 -4 -4 -3 -3 -2 -2 -2 -3 -3 -3 -3 -3 -3 -3 -3 -3 -2 -2 -2 -2 -2 -2 -2 -2 -2 -2 -2 -2 -2 -2 -2 -2 -2 -2 -2 -2 -2 -2 -2 -2 -2
-3 -3 -3 -3 -3 -3 -3 -3 -3 -3 -3 -3 -3 -3 -3 -3 -3 -3 -3 -3 -3 -3 -3 -4 -4 -4 -4 -4 -4 -5 -5 -5 -5 -5 -5 -5 -5 -5 -5 -5 -5 -5 -5 -5 -5 -5 -4 -4 -3 -2 -2 -3 -3 -3 -3 -3 -3 -3 -3 -3 -3 -3 -3 -3 -3 -3 -3 -3 -3 -3 -3 -3 -3 -2 -2 -2 -2 -2 -2 -2 -2 -2 -2 -2 -2 -2
-3 -3 -3 -3 -3 -3 -3 -3 -3 -3 -3 -3 -3 -3 -3 -3 -3 -3 -3 -3 -3 -3 -4 -4 -4 -4 -4 -4 -5 -5 -5 -5 -5 -5 -5 -5 -5 -5 -5 -5 -5 -5 -5 -5 -5 -5 -5 -4 -3 -3 -3 -3 -3 -3 -3 -3 -3 -3 -3 -3 -3 -3 -3 -3 -3 -3 -3 -3 -3 -3 -3 -3 -3 -3 -3 -3 -3 -3 -2 -2 -2 -2 -2 -2 -2 -2
-3 -3 -3 -3 -3 -4 -4 -4 -4 -4 -4 -4 -3 -3 -3 -3 -4 -4 -4 -3 -4 -4 -4 -4 -4 -4 -4 -5 -5 -5 -5 -5 -5 -5 -5 -5 -5 -5 -5 -5 -5 -5 -5 -5 -5 -5 -5 -4 -4 -3 -3 -3 -3 -3 -3 -3 -3 -3 -3 -3 -3 -3 -3 -3 -3 -3 -3 -3 -3 -3 -3 -3 -3 -3 -3 -3 -3 -3 -3 -3 -3 -3 -3 -3 -3 -3
-3 -3 -3 -3 -4 -4 -4 -4 -4 -4 -4 -4 -4 -4 -4 -4 -4 -4 -4 -4 -4 -4 -4 -4 -4 -4 -4 -5 -5 -5 -5 -5 -5 -5 -5 -5 -5 -5 -5 -5 -5 -5 -6 -6 -6 -5 -5 -4 -4 -4 -4 -4 -3 -3 -3 -3 -3 -3 -3 -3 -3 -3 -3 -3 -3 -3 -3 -3 -3 -3 -3 -3 -3 -3 -3 -3 -3 -3 -3 -3 -3 -3 -3 -3 -3 -3
-3 -3 -4 -4 -4 -4 -4 -4 -4 -4 -4 -4 -4 -4 -4 -4 -4 -4 -4 -4 -4 -4 -4 -4 -4 -5 -5 -5 -5 -5 -5 -4 -5 -5 -5 -5 -5 -5 -5 -5 -5 -5 -6 -6 -6 -5 -5 -5 -5 -4 -4 -4 -4 -4 -4 -4 -3 -3 -3 -3 -3 -3 -3 -3 -3 -3 -3 -3 -3 -3 -4 -4 -4 -4 -4 -4 -3 -3 -3 -3 -3 -3 -3 -3 -3 -4
-4 -4 -4 -4 -4 -4 -4 -4 -4 -4 -4 -4 -5 -5 -5 -5 -4 -4 -4 -4 -4 -4 -4 -4 -5 -5 -5 -5 -5 -5 -4 -4 -4 -5 -5 -5 -5 -5 -5 -5 -5 -6 -6 -6 -6 -6 -6 -6 -5 -5 -4 -4 -4 -4 -4 -4 -4 -4 -4 -4 -3 -3 -3 -3 -3 -3 -3 -4 -4 -4 -4 -4 -4 -4 -4 -4 -4 -4 -4 -4 -3 -3 -4 -4 -4 -4
-4 -4 -4 -4 -4 -5 -5 -5 -5 -5 -5 -5 -5 -5 -5 -5 -5 -5 -5 -4 -4 -4 -4 -4 -4 -5 -5 -5 -5 -5 -5 -4 -5 -5 -5 -5 -5 -5 -5 -5 -5 -5 -6 -6 -6 -6 -6 -6 -6 -5 -5 -5 -5 -5 -5 -5 -5 -5 -4 -4 -4 -4 -4 -4 -4 -4 -4 -4 -4 -4 -4 -4 -4 -4 -4 -4 -4 -4 -4 -4 -4 -4 -4 -4 -4 -4
-4 -4 -4 -5 -5 -5 -5 -5 -5 -5 -5 -5 -5 -5 -5 -5 -5 -4 -4 -4 -4 -4 -4 -4 -4 -4 -4 -5 -5 -5 -5 -5 -5 -5 -5 -5 -5 -5 -5 -5 -5 -6 -6 -6 -6 -6 -6 -6 -6 -6 -6 -6 -6 -6 -6 -6 -5 -5 -5 -5 -5 -5 -5 -5 -5 -5 -5 -5 -5 -4 -4 -4 -4 -4 -4 -4 -4 -4 -4 -4 -4 -4 -4 -4 -4 -4
-4 -5 -5 -5 -5 -5 -5 -5 -5 -5 -5 -5 -5 -5 -5 -5 -5 -4 -4 -4 -4 -4 -4 -4 -4 -4 -5 -5 -5 -5 -5 -5 -5 -5 -5 -5 -5 -5 -5 -6 -6 -6 -6 -6 -6 -6 -6 -6 -6 -6 -6 -6 -6 -6 -6 -6 -6 -6 -5 -5 -5 -5 -5 -5 -5 -5 -5 -5 -5 -5 -4 -4 -4 -4 -4 -4 -4 -4 -4 -4 -4 -4 -4 -4 -4 -4
-5 -5 -5 -5 -5 -5 -5 -5 -5 -5 -5 -5 -5 -5 -5 -5 -5 -5 -5 -5 -5 -5 -5 -5 -5 -5 -5 -5 -5 -5 -5 -5 -5 -5 -5 -5 -6 -6 -6 -6 -6 -6 -6 -6 -6 -6 -6 -6 -6 -6 -6 -6 -6 -6 -6 -6 -6 -6 -6 -6 -6 -5 -5 -5 -5 -5 -5 -5 -5 -5 -4 -4 -4 -4 -4 -4 -4 -4 -4 -4 -4 -4 -4 -4 -4 -4
-5 -5 -5 -5 -5 -5 -5 -5 -5 -5 -5 -5 -5 -5 -5 -5 -5 -5 -5 -5 -5 -5 -5 -5 -5 -5 -5 -5 -5 -6 -6 -6 -6 -6 -6 -6 -6 -6 -6 -6 -6 -6 -6 -6 -6 -6 -6 -6 -6 -6 -6 -6 -6 -6 -6 -6 -6 -6 -6 -6 -6 -6 -5 -5 -5 -5 -5 -5 -5 -5 -5 -5 -5 -5 -4 -4 -4 -5 -5 -5 -4 -4 -4 -4 -4 -4
-5 -5 -5 -5 -5 -6 -6 -6 -6 -6 -6 -5 -5 -5 -5 -5 -5 -5 -5 -5 -5 -5 -5 -5 -6 -6 -6 -6 -6 -6 -6 -6 -6 -6 -6 -6 -6 -6 -6 -6 -6 -6 -6 -6 -6 -6 -6 -6 -6 -6 -6 -6 -6 -6 -6 -6 -6 -6 -6 -6 -6 -6 -6 -6 -5 -5 -5 -5 -5 -5 -5 -5 -5 -5 -5 -5 -5 -5 -5 -5 -5 -4 -4 -4 -4 -4
-5 -5 -6 -6 -6 -6 -6 -6 -6 -6 -6 -6 -6 -6 -6 -6 -6 -6 -6 -6 -6 -6 -6 -6 -6 -6 -6 -6 -6 -6 -6 -6 -6 -6 -6 -6 -6 -6 -6 -7 -7 -7 -7 -7 -7 -7 -7 -7 -6 -6 -6 -6 -6 -6 -6 -6 -6 -6 -6 -6 -6 -6 -6 -6 -5 -5 -5 -5 -5 -5 -5 -5 -5 -5 -5 -5 -5 -5 -5 -5 -5 -5 -5 -5 -5 -5
-6 -6 -6 -6 -6 -6 -6 -6 -6 -6 -6 -6 -6 -6 -6 -6 -6 -6 -6 -6 -6 -6 -6 -6 -6 -6 -6 -6 -6 -6 -6 -6 -6 -6 -6 -6 -7 -7 -7 -7 -7 -7 -7 -7 -7 -7 -7 -7 -7 -7 -6 -6 -6 -6 -6 -6 -6 -6 -6 -6 -6 -6 -6 -5 -5 -5 -5 -5 -5 -5 -5 -5 -5 -5 -5 -5 -5 -5 -5 -5 -5 -5 -5 -5 -5 -5
-6 -6 -6 -7 -7 -7 -7 -7 -7 -7 -7 -7 -7 -7 -7 -7 -7 -7 -7 -7 -7 -7 -7 -7 -7 -7 -7 -7 -7 -7 -7 -7 -7 -7 -7 -7 -7 -7 -7 -7 -7 -7 -7 -7 -7 -7 -7 -7 -7 -7 -6 -6 -6 -6 -6 -6 -6 -6 -6 -6 -6 -6 -6 -6 -6 -6 -5 -5 -5 -5 -5 -5 -5 -5 -5 -5 -5 -5 -5 -5 -5 -5 -5 -5 -5 -5
-7 -7 -7 -7 -7 -7 -7 -7 -7 -7 -7 -7 -7 -7 -7 -7 -7 -7 -8 -8 -8 -8 -8 -8 -7 -7 -7 -7 -7 -7 -7 -7 -7 -7 -7 -7 -7 -7 -7 -7 -7 -7 -7 -7 -7 -7 -7 -7 -7 -7 -7 -7 -6 -6 -6 -6 -6 -6 -6 -6 -6 -6 -6 -6 -6 -6 -5 -5 -5 -5 -5 -5 -5 -5 -5 -5 -5 -5 -5 -5 -5 -5 -5 -5 -5 -5
-7 -7 -7 -7 -7 -7 -7 -7 -7 -7 -7 -7 -7 -7 -7 -7 -8 -8 -8 -8 -7 -7 -7 -7 -7 -7 -7 -8 -7 -7 -7 -7 -7 -7 -7 -7 -7 -7 -7 -7 -7 -7 -7 -7 -7 -7 -7 -7 -7 -7 -7 -7 -7 -6 -6 -6 -6 -6 -6 -6 -6 -6 -6 -6 -6 -5 -5 -5 -5 -5 -5 -5 -5 -5 -5 -5 -5 -5 -5 -5 -5 -5 -5 -5 -5 -5
-7 -7 -7 -7 -7 -7 -7 -7 -7 -7 -7 -7 -7 -7 -8 -8 -8 -8 -8 -7 -7 -7 -7 -7 -7 -7 -7 -7 -7 -7 -7 -7 -7 -7 -7 -7 -7 -7 -7 -7 -7 -7 -7 -7 -7 -7 -7 -7 -7 -7 -7 -7 -7 -7 -6 -6 -6 -6 -6 -6 -6 -6 -6 -6 -5 -5 -5 -5 -5 -5 -5 -5 -5 -5 -5 -5 -5 -5 -5 -5 -5 -5 -5 -5 -5 -5
-7 -7 -7 -7 -7 -7 -7 -7 -7 -8 -8 -8 -8 -8 -8 -8 -7 -7 -7 -7 -7 -7 -7 -7 -7 -7 -7 -7 -7 -7 -7 -7 -7 -7 -7 -7 -7 -7 -7 -7 -7 -7 -7 -7 -7 -7 -7 -7 -7 -7 -7 -7 -7 -7 -6 -6 -6 -6 -6 -6 -6 -6 -6 -6 -6 -6 -6 -6 -6 -6 -5 -5 -5 -5 -5 -5 -5 -5 -5 -5 -5 -5 -5 -5 -5 -5
-7 -7 -8 -8 -7 -7 -7 -7 -7 -8 -8 -8 -8 -7 -7 -7 -7 -7 -7 -7 -7 -7 -7 -7 -7 -7 -7 -7 -7 -7 -7 -7 -7 -7 -7 -7 -7 -7 -7 -7 -7 -7 -6 -6 -7 -7 -7 -7 -7 -7 -7 -7 -7 -7 -6 -6 -6 -6 -6 -6 -6 -6 -6 -6 -6 -6 -6 -6 -6 -6 -6 -5 -5 -5 -5 -5 -5 -5 -5 -5 -5 -5 -5 -5 -5 -5
-7 -8 -8 -8 -7 -7 -7 -7 -7 -8 -8 -7 -7 -7 -7 -7 -7 -7 -7 -7 -7 -7 -7 -7 -7 -7 -7 -7 -7 -7 -7 -7 -7 -7 -7 -7 -7 -7 -7 -7 -6 -6 -6 -6 -6 -6 -7 -7 -7 -7 -7 -7 -7 -6 -6 -6 -6 -6 -6 -6 -6 -6 -6 -6 -6 -6 -6 -6 -6 -6 -6 -6 -5 -5 -6 -5 -5 -5 -5 -5 -5 -5 -5 -5 -5 -5
-8 -8 -8 -8 -7 -7 -7 -7 -7 -7 -7 -7 -7 -7 -7 -7 -7 -7 -7 -7 -7 -7 -7 -7 -7 -7 -7 -7 -7 -7 -7 -7 -7 -7 -7 -6 -6 -6 -6 -6 -6 -6 -6 -6 -6 -6 -6 -6 -6 -7 -7 -7 -7 -6 -6 -6 -6 -6 -6 -6 -6 -6 -6 -6 -6 -6 -6 -6 -6 -6 -6 -6 -5 -5 -5 -5 -5 -5 -5 -5 -5 -5 -5 -5 -5 -5
-8 -8 -8 -7 -7 -7 -7 -7 -7 -7 -7 -7 -7 -7 -7 -7 -7 -7 -7 -7 -7 -7 -7 -7 -7 -7 -7 -7 -7 -7 -7 -7 -6 -6 -6 -6 -6 -6 -6 -6 -6 -6 -6 -6 -6 -6 -6 -6 -6 -6 -6 -7 -7 -6 -6 -6 -6 -6 -6 -6 -6 -6 -6 -6 -6 -6 -6 -6 -6 -5 -5 -5 -5 -5 -5 -5 -5 -5 -5 -5 -5 -5 -4 -4 -4 -4
-8 -8 -7 -7 -7 -7 -7 -7 -7 -7 -7 -7 -7 -7 -7 -7 -7 -7 -7 -7 -7 -7 -7 -7 -7 -7 -7 -7 -7 -7 -7 -6 -6 -6 -6 -6 -6 -6 -6 -6 -6 -6 -6 -6 -6 -6 -6 -6 -6 -6 -6 -6 -7 -7 -6 -6 -6 -6 -6 -6 -6 -6 -6 -6 -6 -6 -5 -5 -5 -5 -5 -5 -5 -5 -5 -5 -5 -5 -5 -5 -5 -4 -4 -4 -4 -4
-8 -8 -8 -8 -8 -8 -8 -7 -7 -7 -7 -7 -8 -8 -8 -8 -8 -7 -7 -7 -7 -7 -7 -7 -7 -7 -7 -7 -7 -7 -7 -6 -6 -6 -6 -6 -6 -6 -6 -6 -6 -6 -6 -6 -6 -6 -6 -6 -6 -6 -6 -6 -6 -6 -6 -6 -6 -6 -6 -6 -6 -6 -6 -6 -5 -5 -5 -5 -5 -5 -5 -5 -5 -5 -5 -5 -5 -5 -5 -5 -4 -4 -4 -4 -4 -4
-8 -8 -8 -8 -8 -8 -8 -8 -8 -8 -8 -8 -8 -8 -8 -8 -8 -8 -7 -7 -7 -7 -7 -7 -7 -7 -7 -7 -7 -7 -7 -6 -6 -6 -6 -6 -6 -6 -6 -6 -6 -6 -6 -6 -6 -6 -6 -6 -5 -5 -5 -5 -5 -5 -6 -6 -6 -6 -6 -6 -6 -5 -5 -5 -5 -5 -5 -5 -5 -5 -5 -5 -5 -5 -5 -5 -5 -5 -4 -4 -4 -4 -4 -4 -4 -4
Height
803 803 803 803 803 803 804 804 805 805 806 806 807 808 809 809 809 810 811 812 812 812 813 813 814 814 815 815 815 815 815 816 817 817 818 818 819 819 819 819 819 819 820 820 820 820 819 819 819 819 819 819 819 819 818 818 818 818 819 819 819 819 819 819 819 818 818 818 818 818 818 818 818 818 817 817 817 817 818 818 818 818 818 818 818 818
803 803 803 803 803 803 803 804 804 805 805 806 807 807 808 809 809 809 810 811 811 812 812 813 813 813 813 813 813 814 814 815 816 817 817 818 818 818 818 819 819 819 819 819 819 818 818 818 818 818 818 818 818 818 817 817 817 817 817 817 817 817 817 817 817 817 817 817 817 817 817 817 817 817 817 817 817 817 817 817 817 817 817 817 817 817
803 803 803 803 803 803 803 803 804 804 805 806 806 807 808 808 809 809 810 811 811 811 812 812 812 812 812 812 812 813 813 814 815 816 817 817 817 818 818 818 818 818 818 818 817 817 817 817 817 817 817 817 817 817 817 817 816 816 816 816 816 816 816 816 816 816 816 816 816 816 816 816 816 816 816 816 816 816 816 816 816 816 816 816 816 816
803 803 803 803 803 803 803 803 804 804 805 805 806 807 807 808 809 809 810 810 810 811 811 812 812 812 812 812 812 813 813 814 815 815 816 817 817 817 817 817 817 817 817 816 816 816 816 816 816 816 816 816 816 816 816 816 815 815 815 815 815 815 815 815 815 815 815 815 815 815 814 814 814 814 814 814 815 815 815 815 815 815 815 815 815 814
803 803 803 803 803 803 803 803 804 804 805 805 806 806 807 808 808 809 809 810 810 811 811 811 812 812 812 812 812 813 813 813 814 815 815 816 816 816 816 816 816 815 815 815 815 815 815 815 815 814 814 815 815 815 815 815 814 814 814 814 814 814 814 813 813 813 813 813 813 813 813 813 813 813 813 813 813 813 813 813 813 813 813 813 813 813
804 804 804 803 803 803 803 803 803 804 804 805 806 806 807 807 808 809 809 810 810 810 811 811 812 812 812 812 812 812 812 813 814 814 814 814 814 814 814 814 814 814 814 814 814 814 813 813 813 813 813 814 814 814 814 813 813 813 813 813 812 812 812 812 812 812 812 812 812 812 812 812 812 812 812 812 812 812 812 812 812 812 812 812 812 812
804 804 804 804 804 804 804 804 804 804 804 805 805 806 806 807 807 808 809 810 810 810 811 811 811 812 812 812 812 812 812 812 813 813 813 813 813 812 813 813 813 813 813 813 813 812 812 812 812 812 812 813 813 813 812 812 812 812 812 811 811 811 811 811 811 811 811 811 811 811 811 811 811 811 811 811 811 811 811 811 811 811 811 811 811 811
804 804 804 804 804 804 804 804 804 804 804 805 805 805 806 807 807 808 809 809 810 810 811 811 811 811 811 811 811 811 811 811 812 811 811 811 811 812 812 812 812 812 812 812 812 812 812 812 812 812 812 812 812 811 811 811 811 810 810 810 810 810 810 810 810 810 810 810 810 810 810 810 810 810 810 810 810 810 810 810 810 810 810 810 810 810
804 804 804 805 805 805 805 805 805 805 805 805 805 805 806 807 807 807 808 809 809 810 810 810 810 810 810 810 810 810 810 810 810 810 810 810 810 811 811 811 811 811 811 811 811 811 810 810 810 810 810 810 810 810 810 809 809 809 808 808 808 808 809 809 809 809 809 809 809 809 809 809 809 809 808 808 808 808 808 808 808 808 808 809 809 809
804 804 805 805 805 805 805 805 805 805 805 805 805 805 806 806 807 807 807 808 808 809 809 809 809 810 810 810 810 809 809 809 809 810 810 810 810 810 810 810 810 810 810 809 809 809 809 809 809 809 809 809 808 808 808 808 807 807 807 807 807 807 807 807 807 807 807 807 807 807 807 807 807 807 807 807 807 807 807 807 807 807 807 807 807 807
805 805 805 805 805 805 805 805 805 805 805 805 805 805 806 806 806 806 807 807 807 808 808 808 809 809 809 809 809 808 808 808 809 809 809 809 809 809 809 809 808 808 808 808 808 807 807 807 807 807 807 807 807 807 807 806 806 806 806 806 806 806 806 806 806 806 806 806 806 806 806 806 806 806 806 806 806 806 806 806 806 806 806 806 806 806
805 805 805 805 805 805 805 805 805 805 805 805 805 805 805 805 805 806 806 806 807 807 807 807 808 808 808 808 808 807 807 807 807 807 807 808 808 807 807 807 807 807 807 806 806 806 806 806 806 806 806 806 805 805 805 805 805 805 805 805 805 805 805 804 804 804 804 804 804 805 805 805 805 805 805 805 805 805 805 805 805 805 805 805 805 805
806 806 806 806 805 805 805 805 805 805 805 805 805 804 804 805 805 805 805 806 806 807 807 807 807 807 807 807 807 807 807 807 807 806 806 806 806 806 806 806 806 806 805 805 805 805 805 805 805 805 805 804 804 804 804 803 803 803 803 803 803 803 803 803 803 803 803 803 803 803 804 804 804 804 804 804 804 804 804 804 804 804 804 804 804 804
806 806 806 806 806 805 805 805 805 805 805 804 804 804 804 804 804 805 805 805 805 806 806 806 806 806 806 806 806 806 806 805 805 805 805 805 805 805 805 805 804 804 804 804 804 804 805 804 804 803 803 803 803 802 802 802 802 802 802 802 802 802 802 802 802 802 802 802 802 802 802 802 802 802 802 802 802 802 802 802 802 802 802 802 802 802
806 806 806 806 806 805 805 805 805 804 804 804 804 804 804 804 804 804 804 805 805 805 805 805 805 805 805 805 805 805 805 804 804 804 804 804 804 804 804 804 803 803 803 803 803 803 803 803 802 802 802 802 801 801 801 801 801 801 800 800 800 800 800 800 800 801 801 801 801 801 801 801 801 801 801 801 801 801 801 801 801 801 801 801 801 801
806 806 806 805 805 805 805 805 805 804 804 804 804 804 804 804 804 804 804 804 804 805 805 804 804 804 805 804 804 804 804 804 803 803 803 803 803 803 803 803 802 802 802 802 802 802 802 802 801 801 800 800 800 800 799 799 799 799 799 799 799 799 799 799 799 799 800 800 800 800 800 800 800 800 800 800 800 800 800 800 800 800 800 800 800 800
806 806 806 805 805 805 805 805 804 804 804 804 804 804 804 804 804 804 804 804 804 804 804 804 804 804 804 804 804 804 804 803 803 802 802 802 802 802 803 802 802 801 800 800 800 800 800 800 799 799 799 799 798 798 798 798 798 797 797 797 797 798 798 798 798 798 798 799 799 799 799 799 799 799 799 799 799 799 799 799 799 799 798 798 798 798
806 806 806 805 805 805 805 805 804 804 804 804 804 804 804 804 804 804 804 804 804 804 804 804 804 804 804 804 804 804 803 803 803 802 802 801 801 801 802 802 801 800 799 799 799 799 799 798 798 798 797 797 797 797 797 796 796 796 796 796 796 797 797 797 797 797 797 798 798 798 798 798 798 798 798 797 797 797 797 797 797 797 797 797 797 797
806 806 806 806 806 805 805 805 805 805 805 804 804 804 804 804 804 804 804 804 804 804 804 804 804 804 804 804 804 804 803 803 803 802 802 800 800 800 801 800 800 799 798 798 798 798 797 797 797 797 796 796 796 795 795 795 795 795 795 795 795 795 796 796 796 796 797 797 797 797 797 797 797 796 796 796 796 796 796 796 796 796 795 795 795 795
806 806 806 806 806 806 806 805 805 805 805 805 805 805 805 805 805 805 804 804 804 804 804 804 804 804 804 804 804 803 803 803 803 802 801 800 799 799 800 799 798 798 797 797 797 797 796 796 795 795 795 794 794 794 793 793 793 793 793 794 794 794 795 795 795 795 795 795 795 795 795 795 795 795 795 795 795 795 794 794 794 794 794 793 793 793
807 807 806 806 806 806 806 806 806 805 805 805 805 805 805 805 805 804 804 804 804 804 804 804 804 804 804 803 803 803 803 803 803 802 801 800 799 798 798 798 797 797 796 796 795 795 795 794 794 793 793 793 792 792 792 792 792 792 792 792 793 793 793 794 794 794 794 794 794 794 794 794 794 794 793 793 793 793 793 792 792 792 792 792 792 791
807 807 807 807 807 806 806 806 806 806 805 805 805 805 805 804 804 804 804 804 804 804 804 803 803 803 803 803 803 803 803 803 802 802 801 799 798 797 798 797 797 796 795 794 794 794 793 793 792 792 792 791 791 791 791 791 791 791 791 792 792 792 792 792 792 793 793 793 793 792 792 792 792 792 792 792 792 791 791 791 790 790 790 790 789 789
807 807 807 807 806 806 806 806 806 806 805 805 805 805 805 804 804 804 804 804 804 804 803 803 803 803 803 803 802 802 802 802 802 802 801 799 797 797 797 796 796 795 794 793 792 792 792 791 791 790 790 790 789 789 789 789 789 790 790 790 791 791 791 791 792 792 792 792 791 791 791 791 791 791 790 790 790 789 789 789 788 788 788 787 787 787
807 807 806 806 806 806 806 806 806 805 805 805 805 805 804 804 804 804 804 804 803 803 803 803 803 802 802 802 802 802 802 802 801 801 800 798 797 796 796 795 794 793 792 792 792 791 790 789 789 789 788 788 788 788 788 788 788 789 789 789 790 790 790 790 790 790 790 790 790 790 789 789 789 789 788 788 788 787 787 787 787 786 786 786 785 785
807 807 806 806 806 806 806 806 806 805 805 805 804 804 804 804 803 803 803 803 803 803 803 802 802 802 801 801 801 801 801 801 800 800 799 797 796 795 795 794 793 792 791 791 790 790 789 788 787 787 787 787 787 787 787 787 787 788 788 789 789 789 789 789 789 789 789 788 788 788 787 787 787 787 787 786 786 786 785 785 785 784 784 784 783 783
806 806 806 806 806 806 806 805 805 805 805 804 804 804 803 803 803 803 802 802 802 802 802 802 801 801 801 801 800 800 800 799 799 799 798 797 795 794 794 793 793 792 791 790 789 789 788 787 786 786 786 786 786 786 786 786 787 787 787 788 788 788 788 787 787 787 787 786 786 786 786 785 785 785 785 784 784 784 783 783 783 782 782 782 781 781
806 806 806 806 805 805 805 804 804 804 804 804 804 803 803 802 802 802 802 802 802 802 802 801 801 800 800 800 799 799 799 799 798 798 797 797 795 794 793 793 792 792 791 789 788 788 787 787 786 785 785 785 785 785 785 786 786 786 786 786 786 786 786 786 785 785 785 784 784 784 784 783 783 783 783 782 782 782 782 781 781 781 780 780 779 778
806 806 805 805 805 804 804 804 803 803 803 803 803 803 802 802 801 801 801 801 801 801 801 801 800 800 799 799 798 798 798 798 797 797 797 796 795 793 793 793 792 792 791 789 787 787 787 786 785 785 785 785 785 785 785 785 785 785 785 785 785 784 784 784 783 783 783 782 782 782 782 782 782 781 781 781 780 780 780 779 779 779 778 778 777 776
805 805 805 804 804 804 803 803 802 802 802 801 801 802 801 801 800 800 799 800 800 800 800 800 800 799 799 798 797 797 797 797 796 796 796 795 794 793 793 793 792 792 791 789 787 786 785 785 785 784 784 784 784 784 784 784 784 784 784 784 783 783 782 782 782 782 781 781 781 780 780 780 780 779 779 779 778 778 778 777 777 777 776 776 775 774
804 804 804 803 803 803 802 802 801 801 800 800 800 800 799 799 799 799 798 799 799 799 799 799 799 799 798 798 797 797 796 796 795 795 795 795 794 793 793 792 792 792 792 790 788 786 784 784 784 784 784 784 784 784 783 783 783 783 782 782 782 781 781 781 780 780 779 779 779 779 778 778 778 777 777 777 776 776 776 776 776 775 774 773 772 772
803 803 803 802 802 802 801 801 800 800 799 799 798 798 798 798 797 797 798 798 798 798 798 798 798 798 798 798 797 796 795 795 795 795 795 794 794 793 793 792 792 792 792 792 791 788 785 783 783 783 783 783 783 782 782 782 782 781 781 780 780 779 779 779 779 778 778 777 777 777 777 776 776 775 775 774 774 774 774 774 773 773 772 771 770 770
802 802 802 802 801 801 800 800 799 798 798 797 797 797 797 797 797 797 797 797 797 797 797 797 797 797 797 797 797 796 795 795 795 795 794 794 793 792 792 792 792 792 792 792 792 791 789 785 783 782 782 782 782 781 781 780 780 779 779 778 778 777 777 777 777 777 776 776 775 775 774 774 773 773 773 772 772 772 772 772 772 771 770 769 768 768
802 801 801 801 800 800 799 799 798 798 797 797 797 796 796 796 796 796 796 796 796 796 796 796 796 796 796 796 795 795 794 794 794 794 794 794 793 792 792 792 791 791 791 791 791 791 790 787 784 782 781 780 780 779 779 778 778 778 777 777 777 776 776 776 776 775 774 774 773 773 772 772 772 771 771 770 770 770 770 769 769 769 769 768 767 766
801 800 800 800 799 799 798 798 797 797 797 796 796 796 796 796 795 795 795 795 795 795 795 795 795 795 795 795 794 794 793 793 794 794 794 793 792 791 791 791 791 790 790 790 789 789 788 787 785 783 780 779 778 778 778 777 777 777 777 776 776 775 775 774 774 773 773 772 771 771 770 770 769 769 769 768 768 768 767 767 767 767 767 767 766 765
800 799 799 798 798 797 797 797 796 796 796 796 796 795 795 795 795 795 795 795 795 795 795 795 794 794 794 794 793 793 792 792 793 793 793 792 792 791 790 790 790 790 789 789 788 788 787 785 784 783 781 778 777 776 777 776 776 776 775 775 775 774 773 773 772 772 771 770 769 769 768 768 767 767 767 766 766 766 765 765 765 765 765 765 765 764
798 798 797 797 797 796 796 796 795 795 795 795 795 795 795 795 794 794 794 794 794 794 794 794 794 793 793 793 792 792 791 791 792 792 792 791 791 790 790 789 789 789 789 788 787 787 786 785 783 783 782 779 777 775 775 775 775 775 774 774 773 772 772 771 771 770 769 768 767 767 767 766 766 765 765 764 764 764 764 764 763 763 763 763 763 762
797 797 796 796 796 795 795 795 794 794 794 794 794 794 794 794 794 793 793 793 793 793 793 793 792 792 792 792 791 791 790 790 790 790 790 790 790 789 789 788 787 788 788 787 787 786 785 784 783 782 781 780 778 776 774 773 773 773 772 772 772 771 770 769 769 768 768 767 766 765 765 764 764 763 763 763 762 762 762 762 762 761 761 760 760 760
796 796 795 795 795 794 794 794 794 793 793 793 793 793 793 793 793 792 792 792 792 792 792 791 791 791 791 790 790 789 789 789 788 788 788 788 788 788 787 787 786 786 786 786 786 785 785 784 783 781 780 778 777 776 774 773 772 771 771 770 770 769 768 768 767 767 766 766 765 764 763 763 762 762 761 761 761 760 760 759 759 759 758 758 757 757
795 795 794 794 794 794 793 793 793 793 793 792 792 792 792 792 792 792 791 791 791 790 790 790 789 789 789 788 788 788 787 787 787 787 787 787 787 786 786 785 785 785 785 785 785 785 784 783 782 781 779 778 776 775 774 773 772 770 769 768 767 767 766 766 766 766 765 764 763 762 762 761 761 760 760 759 759 758 757 757 756 756 756 755 755 754
794 794 794 794 793 793 793 793 792 792 792 792 792 792 792 791 791 791 790 790 789 789 789 788 788 787 787 787 787 786 786 786 785 785 785 785 785 785 784 784 783 783 783 783 783 783 783 782 781 780 779 778 776 774 773 772 771 770 769 767 765 764 764 764 764 764 763 762 762 761 760 759 759 759 758 757 757 756 756 755 754 754 754 753 753 752
794 793 793 793 793 792 792 792 792 792 792 791 791 791 791 790 790 789 789 789 788 788 787 787 787 786 786 785 785 785 784 784 784 783 783 783 783 783 783 783 782 782 782 782 782 782 782 781 780 779 778 777 776 775 773 771 771 770 769 768 765 763 762 762 762 762 761 761 760 759 759 758 757 757 756 756 755 754 754 753 753 752 752 751 751 750
793 793 792 792 792 792 792 792 791 791 791 791 791 790 790 790 789 789 788 788 787 787 787 786 786 785 784 784 783 783 783 782 782 782 782 782 782 782 782 782 781 781 781 781 781 780 780 780 779 778 777 777 775 774 772 770 769 769 769 767 765 763 761 760 760 760 760 759 758 758 757 757 756 755 754 754 753 752 752 752 751 750 750 749 749 748
793 792 792 792 792 791 791 791 791 790 790 790 790 789 789 789 788 788 788 787 787 786 786 786 785 784 783 782 782 782 782 782 781 781 781 781 781 781 780 780 780 780 780 780 779 779 778 778 777 777 776 775 775 773 771 769 768 767 767 766 766 764 761 758 757 758 758 757 757 756 756 755 754 753 752 752 751 750 750 749 749 748 748 747 747 746
792 792 792 791 791 791 790 790 790 790 790 789 789 789 788 788 788 787 787 787 786 786 785 785 784 783 782 782 781 781 781 780 780 780 780 780 780 780 779 779 779 779 779 779 778 777 777 777 776 775 774 774 773 772 770 768 767 766 765 765 765 764 762 759 757 757 757 756 755 755 754 754 753 752 751 750 749 748 748 747 747 746 746 745 745 744
791 791 791 791 790 790 790 790 789 789 789 789 788 788 788 787 787 787 787 786 785 785 784 784 783 783 782 781 780 780 780 779 779 779 779 779 779 779 778 778 778 778 777 777 777 776 776 775 774 773 773 772 772 770 769 767 765 764 763 763 762 762 760 759 758 757 756 755 754 753 753 753 752 751 749 748 747 747 746 745 745 744 743 743 742 742
791 791 790 790 790 790 789 789 789 789 788 788 788 787 787 787 787 786 786 785 785 784 784 783 783 782 781 780 780 779 779 778 778 778 778 778 778 777 777 777 777 777 776 776 775 775 774 773 773 772 772 771 769 768 767 766 764 763 761 761 761 760 758 757 757 756 755 754 753 752 752 752 751 750 748 747 746 744 744 743 743 742 741 741 740 740
790 790 790 789 789 789 789 788 788 788 787 787 787 787 786 786 786 785 785 785 784 783 783 782 782 782 781 780 779 779 778 777 777 777 777 777 777 777 776 776 776 775 775 774 774 773 772 772 771 771 770 769 767 765 764 763 763 762 760 759 759 758 757 756 755 755 754 753 752 751 751 751 750 749 747 746 744 743 742 741 741 740 740 739 738 737
789 789 789 789 788 788 788 788 787 787 787 786 786 786 786 785 785 785 784 784 783 783 782 782 781 781 780 779 779 778 777 777 776 776 776 775 775 775 775 775 774 774 773 773 772 772 771 770 769 769 769 768 766 763 762 761 761 760 759 758 758 757 755 754 753 753 752 752 751 750 750 750 749 747 746 744 742 741 740 739 738 738 738 737 737 736
788 788 788 788 787 787 787 787 787 787 786 786 785 785 785 784 784 784 783 783 782 782 782 781 781 780 779 778 778 777 777 776 776 775 774 774 774 774 773 773 773 772 772 771 770 770 768 768 767 766 766 765 764 762 760 759 758 758 757 757 756 755 754 752 752 751 751 750 749 748 748 748 747 746 745 743 741 739 737 736 736 736 736 735 735 734
787 787 787 787 787 787 786 786 786 786 785 785 785 784 784 783 783 783 782 782 782 781 781 780 780 779 778 777 777 776 776 775 775 774 773 773 773 773 772 772 772 771 770 770 769 768 767 766 764 763 762 762 762 760 758 757 756 756 756 755 754 753 752 751 750 749 749 748 747 747 747 746 745 745 744 742 740 737 735 734 733 733 733 733 732 732
787 786 786 786 786 786 785 785 785 785 784 784 784 783 783 783 782 782 782 781 781 780 780 780 779 778 777 777 776 775 775 774 774 773 772 772 772 772 771 771 771 770 769 768 767 767 766 764 762 760 759 759 759 758 757 756 755 754 753 752 752 752 751 750 748 747 747 747 746 745 745 744 743 743 742 741 739 736 734 732 730 730 730 731 731 730
Wind_Speed
7 8 8 9 11 14 16 17 19 21 22 23 23 21 18 13 12 12 12 13 14 16 18 19 20 20 19 18 16 14 13 11 10 9 9 8 9 10 11 11 12 12 12 12 12 12 12 12 12 12 12 13 13 13 13 13 14 14 14 14 14 14 14 14 14 13 13 13 13 13 13 13 12 12 12 12 12 12 12 12 13 13 13 13 13 13
6 7 8 9 11 13 15 16 18 19 21 22 22 21 20 16 13 12 12 12 14 15 17 18 18 18 17 15 13 10 9 8 7 7 7 8 10 11 11 11 11 11 11 11 11 11 11 11 11 12 12 12 12 13 13 13 14 14 14 14 14 14 13 13 13 13 13 13 12 12 12 12 12 12 12 12 12 12 12 13 13 13 13 13 13 13
5 7 8 8 10 12 14 15 16 17 19 20 20 20 20 19 17 16 14 14 15 16 17 17 17 15 13 10 7 6 5 5 5 6 8 10 11 11 11 11 10 10 10 10 10 10 10 11 11 11 12 12 12 12 12 13 13 13 13 13 13 13 13 12 12 12 12 12 12 13 12 13 13 13 13 12 13 13 13 13 13 13 13 13 13 13
6 7 8 8 9 11 12 13 14 15 16 17 18 18 19 19 19 19 19 19 18 18 18 17 14 11 8 6 4 3 3 5 6 8 10 10 11 10 10 10 9 9 9 9 10 10 11 11 12 12 12 12 12 12 12 12 12 12 12 12 12 12 12 12 12 12 12 12 12 12 12 12 13 13 13 13 13 13 13 13 13 13 13 13 13 13
6 7 8 9 9 10 10 11 12 13 13 14 15 15 16 17 18 19 20 20 20 18 16 13 10 7 5 4 3 2 3 5 8 9 10 10 9 9 8 8 8 8 9 9 10 11 12 12 13 13 13 13 13 13 13 12 12 12 12 12 12 12 12 12 11 11 11 11 11 11 12 12 12 13 13 13 13 13 13 13 13 13 13 13 13 13
6 6 7 8 9 9 10 10 11 11 11 11 12 12 13 14 15 16 17 16 15 13 11 8 7 6 5 4 3 4 4 6 8 9 9 9 8 8 7 7 8 8 9 11 12 12 13 13 13 12 12 13 13 13 13 13 12 12 12 11 11 11 11 11 11 10 10 11 11 11 11 12 12 12 12 13 13 13 13 13 13 13 13 13 13 13
5 5 6 7 8 8 8 9 9 9 8 9 9 9 10 10 10 11 10 9 8 7 6 6 6 5 5 5 6 6 7 7 9 10 10 10 10 9 9 9 10 10 11 12 12 12 12 12 12 11 12 12 12 12 12 11 11 11 10 10 10 10 10 10 11 11 11 11 12 12 12 12 12 12 13 13 13 13 13 13 13 13 13 13 13 13
4 4 5 6 6 6 6 6 6 6 5 6 6 6 6 5 5 5 5 5 5 5 5 5 5 6 6 7 8 9 9 9 10 11 11 11 12 12 12 12 13 13 13 12 12 11 11 10 10 10 10 10 10 10 10 10 10 9 9 9 10 10 11 11 11 12 12 12 13 13 13 13 13 13 13 13 13 13 13 13 13 13 13 13 13 13
4 4 4 4 4 4 3 3 3 2 2 3 4 4 4 3 3 3 3 3 4 5 5 6 7 7 8 9 9 10 10 10 10 10 11 11 12 12 13 14 14 14 13 12 11 10 10 9 9 9 10 10 10 10 10 10 10 10 10 11 11 11 12 12 12 13 13 13 13 13 13 13 13 13 13 13 13 13 13 13 13 13 13 13 13 13
3 4 4 4 4 3 1 1 1 1 1 2 2 2 2 2 2 3 3 4 5 6 6 7 8 9 9 9 9 10 10 10 9 9 10 10 11 12 13 14 14 14 13 12 11 10 9 9 9 10 10 10 11 11 11 11 11 12 12 12 12 12 12 13 13 14 14 14 14 14 14 14 14 14 13 13 13 13 13 13 13 13 13 13 13 13
3 3 3 3 3 2 1 0 0 1 0 0 1 1 2 3 3 4 6 6 7 7 8 9 9 9 8 8 8 9 9 8 9 9 10 10 11 12 13 14 15 15 14 12 12 11 11 11 11 11 11 12 12 12 13 13 13 14 14 14 14 14 14 14 15 15 15 15 14 14 14 14 14 13 13 13 13 13 13 13 13 13 13 13 14 14
4 3 2 2 2 1 1 1 1 0 1 1 2 3 4 4 4 6 8 9 9 8 8 8 8 7 7 7 7 7 8 8 9 10 11 12 13 13 14 15 15 15 14 13 13 13 13 13 13 13 14 14 15 15 16 16 17 17 17 17 17 16 16 16 15 15 14 14 13 13 13 13 13 13 13 13 13 13 13 13 13 14 14 14 15 15
2 2 1 1 0 1 1 1 2 2 2 3 5 6 7 6 6 7 8 9 10 10 9 8 7 6 6 6 6 7 8 9 10 12 13 14 15 15 16 16 16 15 15 14 14 14 13 14 14 15 15 16 17 17 18 18 19 19 18 18 17 17 16 15 14 13 13 12 12 13 13 13 13 13 13 13 13 13 13 14 14 14 15 15 16 16
2 2 1 2 2 2 3 3 4 4 5 5 6 6 7 7 7 7 8 9 10 9 9 8 6 6 6 6 7 8 9 10 12 13 14 15 15 16 17 18 18 17 16 15 15 14 13 13 14 14 15 15 15 16 17 17 17 17 16 16 15 14 13 12 11 11 11 12 12 12 13 13 13 13 13 13 14 14 14 14 15 15 16 16 16 17
3 3 4 4 4 4 4 4 5 5 5 6 6 7 7 7 7 7 6 7 7 7 7 7 6 6 5 6 7 8 9 10 12 13 14 15 16 17 18 19 19 19 18 16 15 14 13 12 12 12 12 12 13 13 13 14 14 13 12 12 11 11 11 11 11 11 11 12 12 12 13 13 13 13 13 14 14 14 14 15 15 16 16 16 17 17
4 5 5 6 6 6 5 5 4 4 4 4 4 5 5 5 5 4 4 3 4 4 4 5 5 5 6 6 6 7 8 10 12 13 15 17 19 19 20 20 20 20 18 16 15 13 12 10 10 10 10 10 10 10 10 10 10 10 10 10 10 10 10 11 11 11 12 12 12 13 13 13 13 13 14 14 14 15 15 15 16 16 16 17 17 18
6 6 6 6 6 6 5 4 4 4 4 4 4 3 3 2 3 3 3 3 3 4 4 4 4 5 6 6 5 6 7 10 12 15 17 19 21 21 21 20 19 19 17 15 13 11 9 8 8 8 8 8 8 8 8 8 9 9 9 10 10 10 11 11 12 12 12 13 13 13 13 13 13 14 14 15 15 15 16 16 16 17 17 17 18 18
5 5 5 5 5 5 5 4 4 4 4 4 4 3 3 3 3 3 3 4 4 4 4 5 4 4 5 6 6 7 9 11 14 17 19 21 22 22 21 19 17 17 15 13 11 9 7 7 7 7 7 8 8 8 8 9 9 10 10 10 11 11 11 12 12 12 13 13 13 13 14 14 14 14 15 15 15 16 16 16 17 17 17 17 18 18
5 4 4 4 4 5 5 5 4 4 4 4 3 3 3 3 3 4 4 5 5 5 5 5 5 5 6 7 8 9 11 13 15 18 19 20 21 21 19 17 15 14 13 12 9 7 7 7 8 8 8 9 9 9 9 9 10 10 11 11 11 12 12 12 13 13 13 13 14 14 14 14 15 15 15 15 16 16 16 17 17 17 17 18 18 18
5 5 4 4 4 5 4 5 5 4 4 4 4 4 4 4 4 5 5 6 6 7 7 7 7 7 7 8 9 10 12 14 15 16 17 18 19 19 17 14 13 13 12 11 9 8 9 9 9 10 10 10 10 10 10 10 10 10 11 11 12 12 12 13 13 13 13 13 14 14 14 15 15 15 15 15 16 16 16 17 17 17 18 18 18 19
5 5 5 5 5 5 5 5 5 5 5 6 6 5 5 6 6 6 6 7 7 8 8 8 8 8 8 9 10 11 13 14 14 14 15 16 16 16 14 12 11 12 12 12 11 10 11 11 12 12 12 12 12 11 11 11 11 11 11 12 12 12 13 13 13 13 13 13 14 14 14 14 14 15 15 15 16 16 16 17 17 18 18 19 19 20
4 4 5 5 5 5 6 6 7 7 7 8 8 7 7 7 7 7 7 8 8 9 9 9 9 10 11 12 12 13 13 13 13 12 12 13 14 14 12 10 10 12 13 13 13 13 13 13 13 13 13 13 13 12 11 11 11 11 12 12 12 12 12 12 12 12 13 13 13 13 13 14 14 14 15 15 16 16 17 18 18 19 19 19 20 20
4 3 4 4 4 4 4 5 6 7 7 8 8 9 9 9 8 8 8 8 8 9 9 10 10 11 12 13 13 13 12 11 11 11 10 9 10 11 11 11 11 13 14 14 14 15 15 15 16 15 15 14 12 11 11 10 10 11 11 11 11 11 11 11 11 11 11 11 12 12 13 13 14 15 15 16 17 17 18 18 19 19 19 19 19 20
2 2 2 3 3 4 4 5 6 7 7 7 7 7 8 8 9 9 9 9 9 9 10 11 12 12 13 12 12 11 10 9 9 9 8 8 9 11 11 12 13 14 15 15 15 16 17 18 18 16 14 12 10 9 9 9 9 9 10 10 10 10 10 10 10 10 10 10 11 12 13 14 14 15 16 17 17 17 18 18 18 18 19 19 19 19
1 2 2 3 4 4 5 6 6 7 7 8 8 8 8 8 8 9 9 9 10 10 11 12 12 12 12 12 11 10 9 8 8 8 8 8 10 12 12 12 13 14 15 16 17 18 19 20 19 16 11 8 6 6 6 7 7 8 8 8 8 8 8 8 9 9 10 11 12 13 14 15 16 16 16 17 17 17 17 17 18 18 18 18 19 19
2 3 3 4 4 4 5 5 6 6 7 8 9 9 10 10 10 10 10 10 10 11 11 11 11 12 12 11 11 10 9 8 8 9 8 8 10 12 12 12 12 13 15 17 18 19 20 21 18 13 8 5 4 4 5 6 6 5 5 6 6 7 7 9 10 11 12 13 14 15 16 16 16 16 16 16 16 16 17 17 17 17 18 18 19 19
2 2 3 4 5 6 7 8 8 9 9 9 9 10 11 11 11 11 11 11 10 10 10 10 10 11 11 11 11 11 9 9 9 9 9 10 11 11 11 11 11 13 15 18 19 20 19 18 15 10 5 2 2 4 5 6 6 6 6 6 7 8 9 11 13 14 15 16 17 17 17 16 16 16 16 16 16 16 16 17 17 17 17 18 19 19
6 7 8 8 9 10 11 12 12 13 13 12 11 10 11 12 12 11 11 11 11 11 11 11 10 10 10 10 11 11 10 10 10 10 10 10 9 9 10 10 11 13 16 18 20 19 16 14 11 8 3 2 3 5 6 7 8 8 8 9 10 11 13 15 16 17 17 17 16 16 16 15 15 15 15 16 16 16 16 17 17 17 17 18 18 19
10 10 11 11 12 12 13 14 15 15 14 13 12 12 12 12 13 13 13 12 11 11 11 11 11 10 10 11 12 12 12 11 10 9 9 8 8 8 9 10 11 13 15 17 17 16 13 11 8 6 3 4 5 7 8 8 9 10 11 12 14 16 16 17 16 16 15 15 14 14 15 15 15 15 16 16 16 16 16 16 17 17 17 18 18 19
12 12 12 13 14 15 16 17 17 16 15 13 12 12 13 14 14 14 14 13 12 11 11 11 11 11 11 11 11 10 9 8 7 6 6 6 7 8 10 10 11 12 13 13 12 10 10 10 7 4 3 5 6 8 9 10 12 14 15 16 17 17 16 14 14 13 13 13 14 14 15 15 16 16 16 16 16 16 16 16 16 16 17 18 19 20
13 14 14 15 16 17 18 19 19 18 16 13 11 11 12 13 14 14 14 13 12 12 12 12 12 12 11 9 6 4 5 5 5 4 6 6 8 9 10 11 11 11 11 9 7 6 6 8 6 3 4 7 10 13 14 16 17 18 18 17 16 14 13 12 12 13 14 14 15 15 16 16 16 16 16 16 16 16 16 16 16 16 17 18 19 19
13 14 14 15 17 18 18 19 19 18 15 12 10 9 10 11 11 12 12 12 13 13 13 14 13 13 12 10 8 6 7 7 7 7 9 9 10 11 11 10 10 10 10 9 7 5 3 5 8 10 12 15 17 19 20 20 19 17 16 15 15 14 13 13 14 15 16 17 17 17 17 16 16 15 15 15 15 15 15 15 15 15 16 17 18 19
14 14 15 15 16 18 19 19 18 16 13 9 8 7 7 8 8 9 9 10 11 11 12 13 13 13 13 13 13 12 12 11 10 9 10 10 11 11 11 10 10 11 11 11 10 9 8 10 14 17 19 19 19 19 19 19 17 16 15 14 15 15 15 15 16 17 18 19 19 18 17 16 15 14 14 14 14 14 14 14 14 14 15 16 17 18
16 16 17 17 18 19 20 20 18 14 9 7 5 4 4 4 4 5 5 6 7 8 9 9 10 10 11 11 12 13 13 12 10 9 9 10 10 11 12 12 12 12 12 12 11 12 12 15 16 17 18 19 18 17 17 17 16 15 14 14 15 16 17 18 18 19 19 19 19 18 16 15 14 14 13 13 14 14 14 14 13 14 14 15 16 17
18 18 19 20 21 22 21 19 15 11 7 5 4 3 3 3 3 3 3 4 4 6 7 7 8 9 10 10 11 12 13 12 11 10 10 11 12 12 13 13 12 12 12 12 12 12 12 15 16 16 17 18 19 18 16 15 14 14 14 15 16 18 19 19 20 20 19 19 18 17 16 15 15 15 15 15 15 15 14 14 14 14 15 15 16 17
20 21 21 22 22 21 19 16 12 8 6 4 4 4 4 4 4 4 4 4 5 6 7 9 10 11 12 12 13 14 15 15 14 14 14 14 14 14 14 14 14 13 12 13 13 12 13 14 16 17 17 17 17 17 16 15 14 15 16 17 18 19 20 20 19 19 18 18 18 18 17 17 17 17 17 17 16 16 15 15 16 16 16 17 17 18
21 22 22 21 19 17 14 11 8 6 5 5 5 5 5 6 6 7 7 7 7 8 9 10 11 12 13 14 15 16 17 17 17 17 16 17 17 17 16 16 16 15 14 13 13 14 14 15 16 17 16 16 15 15 16 17 17 17 18 18 19 20 20 19 18 17 17 17 18 18 19 19 19 19 19 18 17 17 17 17 18 18 18 18 18 18
20 20 19 17 15 12 10 8 6 5 5 6 6 6 7 7 8 9 9 10 10 11 11 12 13 13 14 15 16 17 17 18 18 18 18 18 18 18 18 18 17 17 15 14 14 14 14 14 14 14 14 15 16 17 18 18 19 19 19 20 20 20 19 17 16 15 16 17 18 19 20 19 19 19 19 19 19 19 20 20 20 20 19 19 19 19
16 15 14 12 10 9 8 7 6 6 6 6 7 7 8 9 10 10 11 12 12 13 14 15 15 16 16 17 17 18 18 18 18 18 18 18 17 17 17 17 17 16 16 15 15 15 14 14 14 13 13 15 17 18 19 19 19 20 21 21 20 19 17 15 15 15 17 18 19 20 20 19 19 19 19 20 20 20 21 21 21 21 20 20 21 21
12 11 10 9 8 8 7 7 7 7 7 7 7 8 9 10 11 11 12 12 13 14 14 15 15 16 17 17 17 18 18 18 18 18 17 16 15 14 15 15 16 16 15 15 15 15 15 15 16 16 16 16 17 18 19 19 19 19 20 19 19 18 17 17 17 18 19 19 19 19 19 19 19 19 20 20 20 21 21 21 22 21 21 21 22 22
10 9 9 8 8 8 7 7 7 7 7 7 8 8 9 10 10 11 11 11 12 12 12 12 13 13 13 13 13 14 14 14 14 13 13 12 12 12 13 14 15 15 15 15 15 16 16 16 17 17 17 18 18 19 20 20 20 19 19 18 19 21 22 21 20 19 18 18 18 18 18 19 20 20 20 21 21 21 21 22 22 22 22 22 21 22
10 9 9 9 9 8 8 8 7 7 7 8 8 9 10 10 10 11 11 11 11 11 10 10 11 12 13 14 13 12 12 11 11 10 10 10 11 11 12 12 13 14 15 15 16 16 16 17 17 18 18 18 18 19 19 20 20 19 18 19 20 22 23 21 19 17 17 18 18 19 19 20 20 21 21 21 22 22 22 22 22 22 22 21 21 21
10 10 10 10 9 9 8 8 7 7 7 8 9 10 10 10 10 10 10 11 11 11 10 11 12 13 14 14 14 13 12 11 10 10 10 10 10 10 11 12 12 13 14 16 16 16 17 17 18 18 18 18 18 18 20 21 21 20 19 19 19 19 18 19 20 19 19 20 20 20 20 20 20 21 21 21 21 21 22 22 22 21 21 20 20 21
11 11 10 10 9 8 8 7 7 7 8 9 9 10 10 9 9 8 9 10 11 11 11 12 13 14 14 14 14 14 13 11 10 10 9 10 10 10 11 11 12 13 14 16 16 16 17 17 18 18 18 18 18 19 20 21 21 21 20 19 18 18 19 20 21 22 21 21 21 20 20 20 20 21 21 22 22 22 21 21 21 21 20 20 21 22
11 11 10 9 8 8 8 8 8 8 9 9 9 9 9 8 8 8 9 10 11 11 12 12 13 13 12 13 13 13 13 12 11 10 10 10 9 10 10 11 12 12 13 15 17 18 18 17 18 18 18 18 19 20 20 21 21 21 21 20 19 19 21 22 22 21 21 22 22 21 21 21 21 22 22 22 21 21 20 21 21 21 21 21 22 22
10 10 10 9 8 8 8 9 9 9 9 9 9 9 8 8 8 9 10 11 12 12 12 12 12 12 12 12 13 13 13 13 13 12 11 11 10 10 10 10 11 12 13 15 16 18 19 20 20 19 19 19 19 21 21 21 21 21 22 21 20 20 21 21 21 21 21 21 21 22 22 21 21 21 21 21 22 22 22 21 21 21 22 22 22 22
10 10 10 9 9 9 9 9 9 9 10 10 9 9 8 9 10 10 11 11 12 12 13 12 12 12 12 13 13 14 14 14 14 14 13 13 12 11 11 11 11 12 14 15 17 18 20 21 22 22 21 20 20 21 21 21 20 21 21 21 20 20 20 21 21 20 20 20 21 21 22 21 21 21 21 22 22 23 23 22 21 21 21 21 22 22
9 9 9 10 10 10 10 10 10 10 11 11 11 10 10 10 11 11 12 12 12 12 12 12 12 12 13 13 14 14 14 14 14 14 14 14 14 13 13 13 13 13 14 15 17 18 20 21 22 23 23 22 21 21 22 21 21 20 20 20 20 20 20 21 21 20 20 20 21 22 22 21 20 20 21 22 23 24 24 23 22 21 21 21 21 22
9 10 10 10 11 11 11 11 11 11 12 12 13 13 13 12 12 12 12 12 13 13 13 13 12 13 13 14 14 14 14 15 15 15 15 15 14 14 14 14 14 15 15 16 17 18 19 20 21 22 23 23 23 23 23 22 21 21 20 20 19 20 20 21 21 20 20 20 21 21 21 21 21 21 21 21 23 25 25 25 24 23 22 21 21 22
11 11 11 12 12 12 12 12 12 12 13 13 13 13 14 14 13 13 13 13 13 13 13 13 13 13 13 14 14 14 14 15 15 15 15 15 14 14 14 14 14 14 14 15 15 15 16 17 18 19 20 21 23 24 24 23 22 21 20 19 19 19 20 20 21 21 20 20 21 21 21 21 21 21 20 21 22 24 26 25 25 23 22 20 20 21
12 12 13 13 13 14 14 14 14 14 13 13 13 13 13 13 13 13 13 13 13 13 13 13 13 13 14 14 15 15 15 15 15 15 15 15 15 14 14 14 14 13 13 12 12 12 12 12 13 15 17 18 18 21 23 23 23 21 20 20 19 19 19 20 21 22 22 22 22 22 23 22 21 20 20 20 21 23 24 25 25 24 22 20 20 21
Wind_Direction
255 258 258 254 245 239 236 238 237 234 233 233 227 220 219 228 239 243 243 242 243 247 251 256 259 262 264 265 264 260 252 244 241 243 249 260 270 277 279 279 277 277 278 278 279 279 280 280 280 279 278 277 275 274 273 271 270 269 268 268 269 269 269 269 269 270 270 270 269 269 270 270 271 273 274 274 274 275 275 274 275 276 278 279 281 281
249 253 250 248 243 237 235 240 240 237 236 236 234 228 222 224 232 239 241 243 247 252 256 260 264 267 268 267 262 252 241 232 233 244 258 269 273 275 274 274 274 275 277 279 281 283 284 285 285 283 282 280 279 277 274 271 269 268 267 267 266 267 266 268 269 269 270 271 272 273 273 273 274 274 275 275 274 274 273 273 273 274 274 275 276 277
235 236 235 237 234 231 231 236 239 239 238 239 239 236 231 230 234 240 244 247 252 258 262 266 269 270 268 261 249 236 229 229 241 256 265 269 271 271 272 272 273 275 277 280 283 286 287 288 288 287 285 283 282 281 278 274 270 268 267 266 266 266 266 268 270 271 272 273 273 273 273 273 273 273 274 274 274 273 273 273 273 272 272 273 274 274
225 221 222 223 221 221 225 230 234 235 236 238 240 241 240 239 240 244 249 252 257 263 268 271 270 265 252 236 226 230 244 248 254 261 265 267 269 269 271 271 273 276 279 284 288 290 290 290 289 287 285 283 282 281 280 277 274 271 269 269 268 268 268 269 269 269 270 270 270 270 271 271 271 271 271 272 271 271 271 272 272 272 272 272 273 273
217 215 217 212 208 211 221 227 230 232 235 238 241 244 246 245 246 248 252 256 259 263 266 265 256 240 222 218 230 266 276 260 257 260 264 266 268 269 270 271 274 279 284 288 291 292 292 290 288 286 283 281 279 278 278 276 275 272 271 270 269 267 267 267 268 270 271 271 271 271 271 271 271 270 270 270 269 270 270 270 271 271 272 272 272 273
208 212 216 210 207 212 222 228 233 236 239 242 245 247 248 248 249 250 252 255 257 257 253 242 227 217 219 236 262 277 274 257 254 257 261 262 262 263 267 272 278 284 288 292 294 295 294 292 288 284 281 279 277 276 275 273 272 271 269 268 267 267 268 269 271 273 276 275 275 274 275 274 274 273 273 271 271 271 271 271 272 272 273 274 274 273
198 209 218 215 216 223 231 236 242 245 244 241 241 243 243 245 245 245 246 247 244 238 229 220 218 224 240 259 270 272 266 257 254 256 259 258 258 259 264 270 278 284 290 295 298 298 296 293 289 284 281 279 278 278 276 275 274 272 271 269 270 271 271 272 272 274 275 276 275 276 277 276 276 275 275 274 273 273 273 273 273 274 274 274 274 274
180 201 216 217 222 231 240 245 249 250 243 233 224 221 221 224 227 228 228 225 222 219 220 225 233 245 258 267 271 270 267 264 263 263 262 261 261 263 267 272 278 285 292 296 298 297 295 292 287 284 282 282 281 280 278 278 278 276 275 274 273 272 271 271 272 273 274 275 275 276 277 276 276 275 274 274 274 273 273 273 273 273 273 274 274 274
167 179 201 214 218 223 232 240 242 236 223 210 199 190 186 185 190 200 209 220 225 231 239 247 255 263 268 271 271 269 268 267 267 267 265 265 266 268 272 277 282 287 292 295 295 294 290 286 282 280 281 283 281 279 278 279 277 275 274 274 273 273 272 272 273 275 275 275 276 276 277 276 275 275 274 273 273 273 272 272 272 272 272 273 273 274
172 175 186 204 215 220 217 216 197 151 151 165 173 177 185 199 217 232 242 245 248 251 257 263 268 270 270 269 268 267 267 267 266 265 264 266 270 275 280 285 289 291 292 291 289 285 281 278 276 277 279 282 280 278 278 277 274 273 272 273 274 274 274 274 275 275 276 275 275 275 275 275 274 274 273 273 272 272 272 272 272 272 272 273 273 274
144 165 175 187 202 218 232 315 24 61 108 180 211 222 229 238 248 258 264 267 268 269 272 274 274 270 261 258 260 263 265 264 263 262 264 269 275 281 287 291 293 292 289 283 278 273 271 271 273 276 278 279 278 276 275 273 271 270 271 271 273 274 274 274 274 275 274 274 273 273 274 273 273 273 272 272 272 271 271 272 272 272 273 273 274 274
118 128 144 165 189 212 249 311 338 324 283 274 272 269 263 255 256 262 266 271 273 275 274 276 274 266 252 247 252 260 264 264 265 267 270 275 280 286 292 295 295 292 285 277 271 268 267 268 270 273 274 274 272 271 271 270 270 270 270 271 272 273 273 273 274 274 274 273 273 273 273 272 272 272 271 271 271 271 272 272 272 273 274 274 275 275
103 104 111 135 214 270 299 315 315 302 285 278 271 269 270 272 271 269 268 270 271 270 268 266 264 262 257 256 261 267 271 274 276 278 281 284 289 294 298 301 300 296 288 279 272 267 266 268 270 271 271 270 270 269 269 269 269 270 270 271 272 273 273 273 274 274 274 273 273 273 272 272 272 271 271 271 271 272 272 273 273 274 275 275 275 276
46 37 22 9 354 338 327 321 310 298 288 279 274 274 279 281 279 275 271 267 266 267 264 259 257 260 269 273 278 281 283 285 286 288 289 292 296 301 305 306 305 301 294 286 278 271 269 271 272 271 269 267 266 265 265 266 267 268 269 270 271 272 273 274 275 274 274 274 274 273 273 272 272 272 272 272 272 273 273 274 274 275 275 275 275 275
5 357 353 349 344 337 326 315 305 295 288 282 277 274 275 277 279 279 273 260 259 262 262 259 263 270 278 282 287 289 291 292 294 295 296 298 300 303 307 307 305 301 297 291 285 279 276 276 275 272 267 263 261 261 261 262 263 265 267 269 271 273 275 276 275 275 274 274 274 274 273 274 274 273 273 273 273 274 274 274 274 274 275 274 274 274
345 340 336 333 331 329 325 318 310 305 302 299 294 288 280 282 288 293 289 270 265 269 275 284 292 292 286 283 286 291 294 296 297 299 301 301 301 303 306 307 305 301 298 293 289 286 283 280 275 269 264 260 257 257 258 259 262 266 269 273 276 277 278 276 276 276 275 275 274 274 274 274 274 274 273 274 274 274 274 274 274 274 274 274 274 275
337 332 328 327 330 335 337 334 333 335 336 336 335 331 322 317 317 317 313 302 297 301 307 315 315 307 296 290 290 293 296 299 300 302 303 303 302 303 306 306 304 301 299 295 293 291 289 283 276 269 266 262 260 259 260 263 268 272 276 279 279 278 278 277 277 276 275 275 274 274 273 274 274 273 272 273 273 273 273 274 274 274 275 274 275 275
345 343 341 343 352 360 2 3 360 357 355 357 357 351 343 334 327 322 317 311 313 318 322 318 309 302 299 295 296 298 297 299 301 303 304 303 303 304 306 306 303 300 300 298 297 297 294 289 284 281 278 275 272 269 268 270 273 277 278 278 278 277 277 276 276 275 274 273 272 272 272 273 273 273 273 273 273 273 274 274 274 274 274 274 274 274
10 11 16 23 24 21 15 13 11 10 8 7 3 356 348 334 325 319 316 314 315 315 317 314 303 294 292 291 294 297 298 299 302 304 304 303 302 303 305 305 303 300 300 302 304 306 303 298 294 292 290 288 284 281 277 274 273 274 275 275 275 275 275 274 274 273 272 271 271 271 271 271 272 272 272 273 273 274 274 274 274 274 274 274 274 274
22 22 24 22 19 17 14 9 6 5 4 357 348 345 343 333 327 322 319 317 315 312 309 305 298 292 292 292 294 297 300 302 304 305 303 300 299 301 303 304 302 300 302 305 309 312 310 306 302 300 297 296 293 289 285 279 275 273 272 273 273 273 272 272 271 271 270 270 270 269 270 270 271 271 272 273 273 273 273 273 273 274 274 274 275 275
7 8 360 352 349 352 355 351 346 344 342 339 338 338 334 331 326 321 316 315 312 310 308 302 296 292 293 293 295 298 302 305 306 304 300 296 295 297 301 304 304 303 303 306 311 313 311 308 305 303 302 301 298 293 287 281 276 272 271 271 271 270 270 270 269 269 269 269 268 268 268 269 270 271 272 272 273 273 273 273 274 274 275 275 275 275
328 326 322 318 319 323 326 324 323 323 321 320 321 324 325 325 322 316 312 310 307 304 302 299 297 295 294 294 296 298 301 302 301 299 296 292 291 294 302 307 307 304 303 306 310 313 311 308 306 305 305 303 299 292 283 275 271 270 270 270 270 269 268 268 268 268 268 268 267 268 268 269 270 271 272 272 273 273 274 274 275 275 275 275 275 275
311 316 320 320 320 321 326 328 327 322 315 310 308 308 309 311 311 309 307 305 303 301 299 298 296 295 294 295 297 298 299 298 296 294 291 284 286 294 305 309 307 303 302 306 311 313 311 309 308 309 309 304 296 286 275 268 265 266 268 268 268 268 267 267 267 267 268 269 269 269 269 269 270 271 272 273 273 274 275 275 276 276 276 276 276 275
325 336 350 355 356 353 349 348 343 336 326 319 315 312 308 303 300 300 300 300 300 298 295 294 292 291 291 292 294 295 295 293 292 289 284 279 284 294 303 307 306 304 304 309 313 314 311 310 311 312 311 304 291 278 267 262 263 266 267 267 267 266 266 266 266 267 268 269 270 271 271 271 272 273 273 274 275 276 277 277 277 276 276 276 275 275
2 14 15 14 10 3 356 350 343 336 331 326 321 316 312 306 300 295 293 292 292 291 289 287 286 287 288 290 291 292 291 289 286 284 281 283 288 293 300 305 306 306 306 311 312 312 311 312 314 316 313 302 286 270 258 253 255 260 264 265 265 264 265 265 266 268 269 271 272 274 275 275 276 276 276 277 277 277 277 276 276 276 276 276 275 275
54 39 25 14 359 346 337 323 315 314 316 317 316 314 311 306 300 294 289 287 286 286 287 286 285 286 288 289 289 289 289 288 285 283 282 285 290 294 299 304 306 307 308 311 311 312 312 314 318 321 317 301 274 253 245 238 237 242 252 258 259 260 262 264 266 267 269 272 273 275 276 277 277 277 277 277 277 276 276 276 276 276 277 276 276 275
358 343 335 328 319 313 310 304 298 294 293 295 299 303 304 302 298 291 283 281 283 285 286 286 286 287 288 288 287 287 288 287 285 283 283 284 286 290 296 303 308 310 312 312 312 313 314 315 320 325 319 286 235 231 232 227 225 227 238 246 251 257 262 265 268 270 272 273 274 274 275 276 277 277 278 278 277 277 277 277 277 277 278 278 277 275
295 294 296 298 301 303 305 305 303 299 292 287 285 287 290 290 287 282 277 276 277 278 277 278 280 284 286 286 287 288 289 287 283 281 283 282 281 284 295 305 311 315 317 317 316 315 316 317 320 323 311 246 223 225 227 226 227 232 240 249 258 265 270 273 275 276 276 275 275 274 274 275 276 277 278 278 278 278 277 277 277 278 278 277 276 274
288 290 293 298 303 306 308 311 312 309 302 294 286 279 275 272 272 272 272 271 271 269 268 269 272 276 281 286 289 291 291 286 281 279 282 282 282 287 299 308 314 319 323 322 321 319 317 317 317 314 284 241 231 230 230 233 239 248 257 265 271 275 278 278 279 278 276 276 275 276 276 277 278 279 278 279 279 278 278 278 278 278 277 276 275 274
295 297 300 304 307 311 315 318 320 319 313 303 289 275 266 262 261 263 265 265 264 262 261 264 267 271 277 285 291 293 292 287 282 281 288 291 292 295 303 309 313 319 326 328 326 321 316 314 311 294 251 238 239 241 244 254 264 271 276 279 281 282 282 282 282 281 281 281 281 281 281 281 281 280 279 278 278 278 278 277 278 278 277 276 276 275
303 305 308 309 311 313 316 320 322 322 318 308 293 275 265 260 259 260 261 261 260 259 258 259 261 264 269 276 284 289 288 292 294 300 305 301 295 296 301 305 308 313 323 330 330 323 318 315 310 292 270 274 278 278 277 280 285 289 291 291 291 290 290 291 292 291 290 290 288 287 285 283 281 280 278 277 276 276 276 276 277 278 279 278 278 277
302 304 307 308 310 312 315 318 320 320 316 307 293 278 268 264 263 262 262 260 258 257 257 257 257 259 261 263 263 265 273 283 293 301 304 298 293 293 297 298 302 306 311 315 312 304 302 303 301 300 300 298 296 296 296 298 300 302 302 301 299 298 299 299 299 297 296 295 293 291 289 287 284 281 279 277 275 275 274 275 276 277 279 279 279 279
299 301 302 304 306 309 313 316 318 317 313 304 293 282 274 271 269 267 264 261 258 257 256 257 257 259 261 262 263 265 270 276 284 292 296 293 291 291 293 295 297 299 302 302 297 287 279 284 292 298 300 300 300 300 301 303 304 304 303 300 298 298 299 300 299 298 297 297 296 295 294 291 289 286 283 281 279 278 277 276 275 275 277 278 280 281
297 298 299 301 304 308 311 315 316 314 307 297 289 283 280 277 275 272 268 263 261 260 262 263 264 265 265 266 267 269 271 274 279 284 286 287 289 290 292 292 293 296 298 297 294 289 283 284 290 296 300 301 300 299 299 300 300 300 297 295 294 295 297 298 297 297 297 298 298 298 298 297 295 293 291 290 289 287 285 283 279 277 276 277 279 281
295 297 299 301 304 308 311 314 314 309 296 281 273 273 276 279 283 284 282 273 268 267 269 268 269 270 270 272 274 274 274 275 277 278 278 281 285 289 290 289 290 292 294 293 292 292 290 289 291 294 298 300 300 299 298 298 299 297 294 291 291 293 295 297 298 298 299 299 299 299 301 302 301 300 298 298 297 295 292 289 284 280 277 276 276 277
295 297 299 302 305 309 312 314 312 303 284 265 258 262 269 276 281 284 284 278 271 268 268 267 267 267 269 271 274 276 276 277 277 276 276 277 280 284 286 285 285 287 288 287 287 288 290 292 293 294 295 296 298 299 299 300 299 297 294 292 292 294 296 298 299 300 300 299 298 300 302 303 302 302 301 301 299 296 291 287 283 280 278 276 275 275
297 298 301 305 308 312 314 315 311 300 283 269 264 265 269 274 276 277 276 272 268 266 266 266 266 266 266 268 270 273 275 277 277 277 276 276 277 278 279 279 280 280 279 279 282 285 288 291 293 293 291 290 291 295 299 301 301 298 295 294 294 295 297 299 300 300 299 298 298 299 301 301 300 300 301 300 298 295 291 287 285 284 283 281 279 277
300 302 305 308 312 315 316 314 310 301 290 282 278 277 278 279 278 277 276 274 272 272 271 270 268 267 266 266 268 270 272 275 276 277 276 276 275 275 274 275 275 275 273 272 275 279 283 286 289 290 289 288 288 290 295 299 300 299 298 298 298 297 298 300 301 300 298 297 297 298 298 298 298 299 299 299 298 296 294 293 292 292 291 289 287 284
303 306 309 312 315 316 315 311 307 303 298 294 291 290 289 289 288 285 283 280 278 276 276 275 274 273 271 270 270 271 272 274 275 276 275 275 273 272 271 271 272 272 272 271 272 273 275 276 277 280 284 288 290 292 294 296 298 299 302 303 302 300 299 301 301 299 297 297 297 297 297 298 299 299 298 298 297 296 295 295 296 296 295 294 293 290
307 309 312 314 316 315 312 309 305 302 303 302 299 296 293 291 290 288 286 286 285 283 281 281 281 279 277 276 275 275 275 275 275 275 275 274 272 270 269 270 271 273 274 273 272 270 268 267 269 272 276 281 286 290 293 293 295 299 303 305 304 301 300 301 300 299 298 298 298 298 299 300 300 299 298 297 296 295 295 295 295 295 295 293 292 291
310 311 312 313 314 313 310 306 302 299 300 301 299 296 294 294 296 299 299 300 299 298 299 298 296 294 292 291 288 285 283 282 280 279 278 276 273 271 269 269 271 273 274 273 271 268 265 265 267 270 272 276 280 284 286 288 291 294 297 297 297 298 299 300 300 300 301 300 300 299 300 300 299 298 297 296 295 294 294 294 294 294 293 291 289 287
308 308 309 311 312 311 309 304 301 300 298 297 297 297 297 300 302 305 307 308 308 309 309 308 307 305 303 301 301 300 296 294 292 290 286 282 277 273 271 270 270 271 272 271 268 266 264 264 265 267 270 273 277 280 282 284 286 288 289 290 293 298 301 300 300 301 302 301 300 300 299 298 297 297 296 296 294 294 293 292 292 291 290 288 286 284
305 306 307 309 310 310 309 309 307 306 302 299 297 297 299 301 304 306 307 307 308 310 312 311 309 306 303 302 302 302 301 299 298 296 290 286 281 277 273 271 270 270 271 270 268 266 266 266 265 265 268 270 273 275 279 282 285 286 285 286 290 294 297 297 299 302 301 300 299 299 298 298 297 297 297 296 295 294 293 292 291 289 285 283 282 282
303 304 306 308 310 311 311 311 310 308 305 304 304 304 304 304 306 306 305 304 306 308 309 310 310 306 301 299 301 304 304 303 302 298 293 289 285 280 276 274 271 270 270 269 267 266 268 267 266 266 268 269 271 273 276 279 281 283 284 284 284 283 283 288 294 298 299 298 297 297 297 297 298 298 297 296 295 294 293 292 290 288 285 282 281 281
300 302 305 307 308 308 307 304 304 304 305 306 307 308 307 307 306 303 302 302 303 305 306 308 306 302 298 297 301 304 305 306 304 301 297 294 290 285 281 278 276 273 271 270 269 268 267 267 268 271 272 271 270 270 272 275 278 281 282 282 282 280 279 283 287 291 292 293 294 294 295 297 298 297 296 295 294 293 292 290 289 287 285 283 281 280
298 300 302 303 302 300 298 298 300 302 303 304 305 305 305 306 304 301 301 302 303 305 305 306 301 294 291 295 299 302 303 304 303 302 301 300 298 294 290 285 282 279 276 274 273 272 270 268 269 272 275 274 272 271 270 272 274 277 280 281 282 282 282 283 284 285 286 287 289 291 293 295 295 294 293 292 293 292 290 289 287 285 285 284 282 280
295 296 297 299 299 297 295 295 297 299 299 299 299 300 301 302 302 302 302 303 303 303 302 299 293 287 286 289 293 297 299 300 301 301 301 302 302 300 297 294 290 287 283 281 278 276 274 273 273 272 271 272 273 273 272 271 271 273 276 279 281 281 281 282 282 283 283 283 285 287 290 292 292 290 289 290 291 291 290 288 286 284 283 283 282 280
291 291 291 292 292 292 292 292 293 294 295 295 295 296 298 299 301 302 301 300 298 295 291 289 286 284 284 285 287 290 292 294 296 297 298 299 299 299 298 297 295 292 289 287 283 280 278 277 275 272 268 265 266 270 273 272 271 271 273 276 278 278 279 280 281 282 282 282 283 285 287 287 285 284 287 288 290 290 289 288 286 284 283 281 280 279
277 279 281 283 284 285 286 288 289 291 293 293 294 295 297 297 297 296 295 294 292 289 285 283 283 283 284 285 287 288 290 291 292 293 295 295 295 295 295 296 295 293 291 289 285 283 281 279 275 270 265 260 259 262 268 270 271 271 272 272 273 274 276 278 281 282 282 282 282 284 284 282 280 279 281 283 285 287 288 287 287 285 283 281 279 278
268 270 273 276 279 281 283 284 286 288 290 291 292 294 296 296 296 295 294 292 289 286 282 280 280 281 282 284 286 288 289 289 290 291 292 293 294 294 293 294 294 293 291 289 286 284 282 281 279 275 269 261 257 257 260 264 268 271 271 270 270 271 273 276 279 281 281 281 282 282 282 281 279 278 277 277 280 284 286 286 286 285 284 282 280 279
268 268 269 272 275 278 279 281 283 285 286 288 291 292 293 293 293 293 292 289 286 283 281 280 279 278 279 281 284 285 286 286 287 287 288 291 292 292 291 291 290 289 288 288 289 290 289 289 287 285 280 269 260 256 256 259 263 268 270 270 271 271 272 275 278 280 281 282 282 282 282 281 279 277 274 274 277 281 284 285 285 285 285 284 282 280